Weather History for Mountain Home, AR

Change the Weather History Date:

Friday, May 31, 2013

  Actual Average (KHRO) Record (KHRO)
Temperature  
Mean Temperature 75 °F 70 °F  
Max Temperature 84 °F 80 °F 98 °F (1934)
Min Temperature 66 °F 59 °F 38 °F (1930)
Degree Days  
Heating Degree Days 0 1  
Month to date heating degree days 77  
Since 1 July heating degree days 3998  
Cooling Degree Days 10 5  
Month to date cooling degree days 102  
Year to date cooling degree days 139  
Growing Degree Days 25 (Base 50)    
Moisture  
Dew Point 67 °F    
Average Humidity 84    
Maximum Humidity 94    
Minimum Humidity 67    
Precipitation  
Precipitation 0.27 in 0.14 in 2.75 in (1927)
Month to date precipitation 4.69  
Year to date precipitation 18.00  
Snow  
Snow 0.00 in 0.00 in - ()
Month to date snowfall 0.0  
Since 1 July snowfall 11.5  
Snow Depth -    
Sea Level Pressure  
Sea Level Pressure 29.82 in    
Wind  
Wind Speed 8 mph (SSE)    
Max Wind Speed 18 mph    
Max Gust Speed 30 mph    
Visibility 9 miles    
Events Rain , Thunderstorm    
T = Trace of Precipitation, MM = Missing Value Source: NWS Daily Summary

Daily Weather History Graph

Daily Weather History Graph

Search for Another Location

Airport:

Trip Planner

Search our weather history database for the weather conditions in past years. The results will help you decide how hot, cold, wet, or windy it might be!

Date:

Astronomy

May. 31, 2013 Rise Set
Actual Time 5:53 AM CDT 8:21 PM CDT
Civil Twilight 5:23 AM CDT 8:51 PM CDT
Nautical Twilight 4:47 AM CDT 9:28 PM CDT
Astronomical Twilight 4:06 AM CDT 10:09 PM CDT
Moon 1:04 AM CDT (5/31) 1:00 PM CDT (5/31)
Length of Visible Light 15h 27m
Length of Day
14h 28m
Waning Gibbous, 51% of the Moon is Illuminated
May 31
Waning Gibbous
May 31
Last Quarter
Jun 8
New
Jun 16
First Quarter
Jun 23
Full

Hourly Weather History & Observations

Time (CDT) Temp. Heat Index Dew Point Humidity Pressure Visibility Wind Dir Wind Speed Gust Speed Precip Events Conditions
12:35 AM 71.6 °F - 66.2 °F 83% 29.87 in 10.0 mi South 6.9 mph - N/A Thunderstorm Overcast
12:53 AM 71.1 °F - 66.0 °F 84% 29.88 in 3.0 mi SSW 9.2 mph - 0.01 in Rain , Thunderstorm Heavy Rain
12:59 AM 69.8 °F - 66.2 °F 88% 29.91 in 2.0 mi SW 6.9 mph - 0.02 in Rain , Thunderstorm Heavy Rain
1:10 AM 69.8 °F - 66.2 °F 88% 29.88 in - SSE 8.1 mph - 0.06 in Rain , Thunderstorm Heavy Thunderstorms and Rain
1:25 AM 68.0 °F - 66.2 °F 94% 29.84 in 3.0 mi SSE 13.8 mph 20.7 mph 0.12 in Rain Light Rain
1:35 AM 69.8 °F - 64.4 °F 83% 29.84 in 10.0 mi South 11.5 mph - 0.16 in Rain , Thunderstorm Light Thunderstorms and Rain
1:53 AM 68.0 °F - 64.9 °F 90% 29.77 in 10.0 mi SE 18.4 mph 24.2 mph 0.20 in Rain , Thunderstorm Light Rain
2:01 AM 68.0 °F - 64.4 °F 88% 29.76 in 10.0 mi SSE 15.0 mph 29.9 mph 0.02 in Rain Light Rain
2:16 AM 68.0 °F - 66.2 °F 94% 29.82 in 10.0 mi South 10.4 mph - 0.04 in   Scattered Clouds
2:53 AM 66.9 °F - 64.0 °F 90% 29.84 in 10.0 mi South 5.8 mph - 0.06 in   Clear
3:53 AM 66.0 °F - 63.0 °F 90% 29.85 in 10.0 mi ESE 5.8 mph - N/A   Overcast
4:20 AM 66.2 °F - 62.6 °F 88% 29.86 in 10.0 mi SE 4.6 mph - N/A   Overcast
4:29 AM 66.2 °F - 64.4 °F 94% 29.86 in 10.0 mi SE 6.9 mph - N/A   Overcast
4:53 AM 66.0 °F - 64.0 °F 93% 29.83 in 10.0 mi SE 9.2 mph - N/A   Overcast
5:28 AM 66.2 °F - 64.4 °F 94% 29.85 in 10.0 mi SE 8.1 mph - N/A   Overcast
5:53 AM 66.9 °F - 64.9 °F 93% 29.83 in 10.0 mi SE 8.1 mph - N/A   Overcast
6:08 AM 66.2 °F - 64.4 °F 94% 29.84 in 10.0 mi SSE 6.9 mph - N/A   Overcast
6:53 AM 66.9 °F - 64.9 °F 93% 29.82 in 9.0 mi SE 8.1 mph - N/A   Overcast
7:45 AM 68.0 °F - 64.4 °F 88% 29.85 in 10.0 mi ESE 5.8 mph - N/A   Mostly Cloudy
7:53 AM 68.0 °F - 64.9 °F 90% 29.83 in 10.0 mi SE 5.8 mph - N/A   Overcast
8:05 AM 69.8 °F - 66.2 °F 88% 29.85 in 10.0 mi ESE 6.9 mph - N/A   Overcast
8:53 AM 70.0 °F - 66.9 °F 90% 29.84 in 9.0 mi SSE 8.1 mph - N/A   Overcast
9:53 AM 73.9 °F - 68.0 °F 82% 29.83 in 10.0 mi SSW 8.1 mph - N/A   Overcast
10:53 AM 75.0 °F - 68.0 °F 79% 29.83 in 9.0 mi SSW 6.9 mph - N/A   Overcast
11:43 AM 75.2 °F - 69.8 °F 83% 29.86 in 9.0 mi South 4.6 mph - N/A   Overcast
11:53 AM 75.9 °F - 70.0 °F 82% 29.83 in 9.0 mi South 4.6 mph - N/A   Overcast
12:53 PM 80.1 °F 83.2 °F 70.0 °F 71% 29.82 in 9.0 mi SSW 10.4 mph - N/A   Overcast
1:53 PM 80.1 °F 83.6 °F 71.1 °F 74% 29.81 in 9.0 mi SSE 5.8 mph - N/A   Overcast
2:53 PM 82.0 °F 86.7 °F 72.0 °F 71% 29.80 in 9.0 mi SSE 5.8 mph - N/A   Overcast
3:53 PM 82.9 °F 88.0 °F 72.0 °F 69% 29.79 in 9.0 mi SSW 9.2 mph - N/A   Mostly Cloudy
4:53 PM 84.0 °F 89.6 °F 72.0 °F 67% 29.77 in 9.0 mi South 8.1 mph - N/A   Clear
5:53 PM 82.9 °F 87.5 °F 71.1 °F 67% 29.75 in 9.0 mi Variable 6.9 mph 19.6 mph N/A   Partly Cloudy
6:53 PM 82.0 °F 85.9 °F 70.0 °F 67% 29.70 in 9.0 mi South 10.4 mph - N/A   Clear
7:53 PM 79.0 °F - 70.0 °F 74% 29.73 in 9.0 mi South 8.1 mph - N/A   Partly Cloudy
8:53 PM 78.1 °F - 70.0 °F 76% 29.75 in 10.0 mi SSE 6.9 mph - N/A   Partly Cloudy
9:53 PM 75.9 °F - 71.1 °F 85% 29.78 in 9.0 mi SE 4.6 mph - N/A   Partly Cloudy
10:53 PM 75.9 °F - 72.0 °F 87% 29.78 in 9.0 mi SE 5.8 mph - N/A   Clear
11:53 PM 75.0 °F - 72.0 °F 90% 29.80 in 9.0 mi ESE 3.5 mph - N/A   Scattered Clouds